User: anonymous   Login
Location: Irma
(52.9170°N, 111.2330°W)
Time: 17:59:18
(UTC-07:00)
Language:

deb Chang Zheng 4 - Orbit

View from above orbital plane
View from above orbital plane
View from above satellite
View from above satellite

Ground track
Ground track

The orbit data is extracted from the following two-line orbital elements,

1 20847U 90081K   15060.45814742  .00018507  00000-0  29291-2 0  9992
2 20847 098.5801 241.8550 0020637 210.6118 209.6519 14.72165774281968
Epoch (UTC): 01 March 2015 10:59:43
Eccentricity: 0.0020637
inclination: 98.5801°
perigee height: 639 km
apogee height: 668 km
right ascension of ascending node: 241.8550°
argument of perigee: 210.6118°
revolutions per day: 14.72165774
mean anomaly at epoch: 209.6519°
orbit number at epoch: 28196

The dashed part of the orbit path shows where the satellite is in the earth's shadow,  

DLR